Vertical_Velocity
1 -2 4 -2 1 -3 -1 1 -2 1 -4 -3 -1 -3 -0 1 -2 -0 0 -2 -2 -0 -1 -2 -0 4 0 3 14 5 15 3
-3 8 -0 2 -3 1 -4 0 2 -1 -1 -2 -4 -4 0 1 -0 -1 0 2 -0 -1 0 3 -0 -3 -1 4 -2 2 3 -2
4 1 -2 -1 4 -1 -1 -1 2 3 3 -0 4 2 8 3 1 1 -1 0 1 1 -0 -1 1 -1 -0 4 -0 1 -10 1
9 7 5 -10 1 -5 -9 -3 -1 3 -0 4 4 7 3 7 1 0 -1 -0 1 1 2 2 -1 -1 0 2 -2 0 2 1
4 6 7 1 -7 24 19 0 -2 -4 -5 -1 -2 0 -1 -2 -2 1 2 1 -2 -2 -3 0 6 2 3 -2 4 3 3 4
2 0 4 1 -5 5 5 0 -6 -5 0 -1 2 -5 -1 -0 2 1 1 -1 1 6 7 6 1 -5 1 1 3 -1 1 -0
-3 -0 -6 -5 -10 -4 -1 -6 -2 -2 -1 -1 1 -3 3 -1 -0 1 4 -3 -2 -2 -4 10 -4 0 -3 -5 2 -0 -1 1
-3 -5 -2 -1 0 0 3 -1 2 -3 -0 1 1 -5 -0 -0 0 -3 -2 -3 0 -3 -5 8 -2 -2 -7 -0 -1 0 0 -5
-0 -2 3 2 0 1 2 2 1 0 -5 -0 1 -1 -3 1 -2 -1 0 -1 -3 -3 -5 21 4 -2 -5 -4 -4 2 -1 -1
3 4 -2 0 -4 -1 -0 -3 1 0 -6 1 -2 1 -1 -2 -5 1 2 -1 3 -2 1 1 -2 -1 -3 -2 4 -5 -2 -2
-15 -6 6 4 -3 -2 5 -9 -3 4 -7 -2 -1 -2 -1 -0 -2 -1 -0 -2 2 -3 -0 1 -6 -5 -6 -2 0 -4 1 -2
10 -7 -1 -0 -4 4 -1 -3 -7 -2 -3 -1 -1 -5 -3 0 1 0 -0 -1 -3 -3 -1 -3 -3 -2 28 -5 -6 1 3 -2
-13 3 2 -2 -5 6 -0 -2 -2 -6 6 -5 0 1 -5 -3 -1 0 -2 1 -8 -5 2 -6 2 -3 -2 9 1 -4 0 -5
3 -3 1 -2 -3 9 -1 1 -5 4 2 0 -4 -0 -3 -2 -3 1 -1 4 -3 -6 -6 2 2 -0 -3 4 8 9 9 5
-3 5 -3 -1 2 -2 0 -1 -1 5 6 -6 -5 -6 -3 -1 -4 -5 2 -3 -0 -6 -2 3 -1 -4 -2 -0 -2 -1 1 13
-2 -3 -1 1 -3 -5 -1 1 -2 -0 -6 -6 6 -8 -3 -2 -10 10 -5 -5 3 1 -11 3 -1 -3 -3 -3 -4 -1 -2 -4
-2 -2 1 0 -0 1 -2 -3 0 4 -5 3 -2 0 -7 13 2 -7 2 -1 -8 3 2 -2 -5 -2 -3 -1 -4 -4 0 1
1 -2 -0 -1 1 2 -1 -2 -1 -3 -5 1 0 4 2 -3 -4 1 -3 2 -1 -2 -1 2 -1 -5 -3 1 -4 -3 -4 0
2 -4 2 -2 -1 -1 2 0 -4 -1 0 2 0 0 -1 1 -2 -5 -1 0 1 2 -3 -0 -4 -3 -4 0 -4 -1 1 -2
-2 -2 3 -2 -1 1 -1 -1 -1 -1 -2 -0 2 -5 -0 -1 -3 2 -1 3 -4 -4 0 -1 -4 -5 -2 -9 1 1 -2 -5
Height
1538 1540 1542 1545 1547 1549 1550 1552 1553 1555 1556 1557 1558 1559 1560 1560 1560 1560 1560 1560 1561 1561 1561 1562 1562 1562 1562 1562 1563 1561 1561 1561
1539 1541 1543 1545 1547 1550 1551 1553 1554 1556 1557 1558 1560 1561 1561 1561 1561 1561 1561 1561 1561 1561 1561 1561 1561 1561 1561 1561 1560 1560 1559 1559
1540 1543 1545 1546 1548 1550 1552 1554 1556 1556 1558 1560 1561 1561 1561 1561 1562 1562 1562 1562 1562 1562 1561 1561 1561 1561 1561 1560 1560 1559 1559 1560
1542 1544 1546 1548 1550 1551 1553 1554 1557 1557 1557 1560 1560 1561 1562 1562 1563 1562 1562 1562 1563 1562 1562 1562 1561 1561 1561 1560 1559 1560 1559 1558
1542 1545 1548 1551 1554 1555 1555 1554 1557 1556 1556 1558 1559 1561 1561 1562 1562 1562 1562 1563 1562 1562 1562 1562 1561 1561 1559 1559 1559 1558 1558 1557
1541 1544 1548 1549 1552 1552 1552 1554 1556 1558 1558 1559 1560 1560 1561 1562 1562 1562 1561 1561 1562 1562 1561 1561 1561 1559 1559 1558 1558 1557 1557 1556
1542 1545 1547 1549 1551 1553 1553 1555 1556 1558 1558 1558 1559 1558 1559 1559 1560 1560 1560 1559 1559 1560 1561 1562 1560 1558 1558 1557 1557 1556 1557 1556
1542 1545 1548 1550 1553 1554 1554 1554 1555 1555 1556 1556 1557 1556 1558 1558 1558 1557 1557 1556 1556 1557 1559 1561 1559 1559 1557 1556 1556 1556 1557 1556
1542 1545 1548 1550 1551 1553 1553 1554 1555 1554 1554 1555 1554 1555 1556 1557 1556 1556 1555 1555 1554 1556 1558 1561 1561 1559 1557 1557 1557 1558 1558 1559
1542 1545 1548 1549 1549 1552 1553 1553 1555 1553 1553 1554 1554 1555 1555 1555 1555 1556 1555 1554 1554 1556 1558 1558 1560 1559 1560 1560 1560 1559 1560 1559
1538 1545 1547 1547 1548 1552 1551 1552 1554 1552 1552 1553 1553 1554 1555 1555 1555 1555 1554 1554 1554 1555 1557 1558 1559 1559 1560 1561 1561 1560 1561 1560
1534 1541 1545 1544 1547 1549 1549 1551 1553 1552 1551 1553 1553 1553 1555 1555 1555 1555 1554 1553 1555 1556 1556 1557 1557 1558 1562 1560 1561 1561 1561 1562
1537 1540 1542 1544 1547 1549 1548 1550 1552 1553 1551 1551 1553 1554 1555 1556 1555 1556 1555 1554 1555 1557 1558 1559 1557 1557 1559 1561 1560 1561 1562 1562
1532 1537 1539 1543 1546 1547 1544 1549 1550 1552 1551 1549 1553 1555 1556 1557 1556 1556 1555 1555 1553 1558 1559 1561 1556 1557 1558 1559 1561 1564 1563 1562
1530 1534 1537 1543 1542 1544 1545 1548 1549 1551 1548 1548 1554 1556 1558 1558 1558 1557 1555 1555 1556 1558 1560 1560 1557 1558 1559 1561 1560 1562 1563 1565
1529 1533 1537 1539 1539 1542 1546 1547 1547 1546 1548 1548 1553 1554 1559 1560 1559 1558 1557 1558 1558 1558 1560 1560 1559 1559 1561 1562 1563 1564 1562 1564
1528 1531 1534 1537 1538 1541 1543 1545 1547 1547 1549 1552 1552 1552 1556 1557 1558 1560 1559 1559 1560 1561 1561 1560 1561 1562 1562 1563 1564 1565 1563 1564
1526 1529 1533 1535 1537 1539 1542 1544 1546 1547 1550 1551 1553 1556 1557 1557 1559 1562 1560 1561 1561 1562 1563 1562 1561 1562 1565 1564 1564 1565 1564 1563
1523 1527 1531 1533 1535 1538 1540 1542 1544 1546 1549 1551 1553 1555 1556 1558 1561 1561 1562 1563 1564 1563 1565 1564 1564 1563 1566 1564 1566 1565 1565 1562
1520 1525 1528 1531 1534 1536 1538 1540 1542 1545 1548 1551 1552 1556 1558 1559 1560 1562 1563 1564 1565 1566 1566 1565 1564 1565 1565 1568 1566 1566 1563 1564